Regional Weather Roundup
Issued by NWS

Home | Current Version | Previous Version | Graphics & Text | Print | Product List | Glossary On
Versions: 1 2 3 4 5 6 7 8 9 10 11 12 13 14 15 16 17 18 19 20 21 22 23 24 25 26 27 28 29 30 31 32 33 34 35 36 37 38 39 40 41 42 43 44 45 46 47 48 49 50
000
ASUS45 KTFX 011410
RWRMT
MONTANA REGIONAL WEATHER ROUNDUP
NATIONAL WEATHER SERVICE GREAT FALLS MT
800 AM MDT WED JUL 01 2015

NOTE: "FAIR" INDICATES FEW OR NO CLOUDS BELOW 12000 FEET WITH NO
SIGNIFICANT WEATHER AND/OR OBSTRUCTIONS TO VISIBILITY.

MTZ001>007-043-011500-
WEST OF THE DIVIDE

CITY           SKY/WX    TMP DP  RH WIND       PRES   REMARKS
KALISPELL      MOSUNNY   67  54  63 VRB3      30.05R
MISSOULA       SUNNY     66  47  50 SE3       30.10R
BUTTE          SUNNY     58  46  64 CALM      30.22R
MULLAN PASS    SUNNY     66  42  41 CALM      30.22R
DEER LODGE       N/A     64  50  59 CALM      30.20S
EUREKA           N/A     66  55  68 NW3       30.08R
HAMILTON         N/A     68  50  52 S7        30.10S
PLAINS           N/A     62  51  67 CALM      30.05R
RONAN            N/A     70  56  61 N6        30.09R
$$

MTZ008-052>055-011500-
SOUTHWEST MONTANA

CITY           SKY/WX    TMP DP  RH WIND       PRES   REMARKS
BOZEMAN        SUNNY     67  51  56 S3        30.13R
DILLON         SUNNY     61  50  67 SW8       30.17S
W YELLOWSTONE  MOSUNNY   57  50  77 CALM      30.27S
THREE FORKS      N/A     66  66 100 CALM      30.10S
$$

MTZ009-010-012-014-046-048-049-054-011500-
EAST SLOPES AND CENTRAL MONTANA

CITY           SKY/WX    TMP DP  RH WIND       PRES   REMARKS
CUT BANK       SUNNY     63  55  75 N7        30.08R HAZE
GREAT FALLS    SUNNY     67  53  61 SW9       30.05F
MALMSTROM AFB  SUNNY     66  54  66 SW7       30.06S
HELENA         SUNNY     68  49  50 CALM      30.09R
CONRAD           N/A     63  63 100 CALM      30.08R
$$

MTZ011-013-016-021-045-047-050-051-011500-
NORTH CENTRAL MONTANA

CITY           SKY/WX    TMP DP  RH WIND       PRES   REMARKS
HAVRE          MOSUNNY   64  56  75 NE6       30.03R HAZE
CHINOOK          N/A     63  57  82 W3        30.03S
FORT BENTON      N/A     64  55  72 CALM      30.05S
$$

MTZ017>020-022>027-061-062-011500-
NORTHEAST MONTANA

CITY           SKY/WX    TMP DP  RH WIND       PRES   REMARKS
GLASGOW        SUNNY     66  59  78 E3        29.99R HAZE
JORDAN           N/A     66  58  75 CALM      30.01R
SIDNEY         CLOUDY    64  61  88 N5        29.98R
WOLF POINT     CLOUDY    66  60  81 E8        29.99S HAZE
MALTA            N/A     64  56  75 CALM      29.98R
PLENTYWOOD       N/A     61  61 100 N3        30.00R VSB 0
POPLAR           N/A     64  63  94 NE3       30.00R
SCOBEY           N/A     59  54  83 NE2       30.00R
$$

MTZ028>42-056>058-011500-
SOUTHCENTRAL AND SOUTHEAST MONTANA

CITY           SKY/WX    TMP DP  RH WIND       PRES   REMARKS
BAKER          CLOUDY    62  62 100 NW6       30.00R FOG
BILLINGS       MOSUNNY   69  53  56 SW5       30.06F
LIVINGSTON     SUNNY     64  50  60 W5        30.12S
MILES CITY     CLOUDY    70  59  68 N9        29.99S HAZE
EKALAKA          N/A     67  57  70 NW8       30.00R
FORSYTH          N/A     70  54  56 W9        30.00S
LAUREL           N/A     70  52  52 NW1       30.05S
ROUNDUP          N/A     67  51  56 CALM      29.96F
$$

REGIONAL REPORTS...DAKOTAS

CITY           SKY/WX    TMP DP  RH WIND       PRES   REMARKS
WILLISTON      CLOUDY    65  59  81 N7        29.98S HAZE
MINOT          FOG       63  62  97 NW3       29.95S VSB 1/4
DICKINSON      CLOUDY    62  60  93 NE7       29.97R FOG
BEACH          LGT RAIN  63  63 100 E5        30.00R
CROSBY         FOG       59  59 100 NW3       29.99S VSB 1/2
BISMARCK       CLOUDY    66  63  90 E7        29.96R FOG
GRAND FORKS    SUNNY     65  58  78 CALM      29.94S
FARGO          MOSUNNY   69  62  78 S9        29.95S
BUFFALO SD       N/A     69  59  70 NW18      29.90S
RAPID CITY     SUNNY     77  61  57 NW9       29.96R
$$

REGIONAL REPORTS...WYOMING/IDAHO/WASHINGTON

CITY           SKY/WX    TMP DP  RH WIND       PRES   REMARKS
GILLETTE       SUNNY     73  52  47 W6        30.09R
SHERIDAN       SUNNY     68  53  58 CALM      30.08S
BUFFALO WY     SUNNY     74  50  42 NW6       30.15R
CODY           MOSUNNY   70  55  60 CALM      30.14S
YELLOWSTONE LA   N/A     58  50  75 CALM      30.36S
IDAHO FALLS    MOSUNNY   66  57  72 E3        30.13R
SALMON         SUNNY     63  52  67 CALM      30.12S
BOISE          SUNNY     73  53  49 SW3       30.01R
SPOKANE        MOSUNNY   69  48  47 CALM      30.01R
$$

REGIONAL REPORTS...ALBERTA

CITY           SKY/WX    TMP DP  RH WIND       PRES   REMARKS
EDMONTON       MOSUNNY   61  55  82 W6        30.01R
CALGARY        PTSUNNY   59  54  82 N12G17    30.12R
LETHBRIDGE     PTSUNNY   63  57  82 NE9       30.08R HAZE
MEDICINE HAT   TSTM      59  57  94 N6          N/A  SMOKE
WATERTON GATE    N/A     59  54  82 S13         N/A
CARDSTON         N/A     61  61 100 NE6         N/A
MILK RIVER       N/A     61  59  94 NW7         N/A
ONEFOUR          N/A     59  55  88 E3          N/A
$$

REGIONAL REPORTS...SASKATCHEWAN

CITY           SKY/WX    TMP DP  RH WIND       PRES   REMARKS
SWIFT CURRENT  PTSUNNY   63  59  88 W3        30.02R FOG
REGINA         CLOUDY    57  57 100 NW3       29.99R FOG
SASKATOON      MOSUNNY   63  61  94 NW5       29.97S SMOKE
CYPRESS HILLS    N/A     63  57  82 W1          N/A
VAL MARIE        N/A     63  57  82 NW2         N/A
$$



USA.gov is the U.S. government's official web portal to all federal, state and local government web resources and services.